Arlington, WA

9:26 PM PDT on October 19, 2017 (GMT -0700)
Arlington Municipal

Weather History for KAWO - June, 2013

Change the Weather History Date:

Sunday, June 2, 2013

  Actual Average Record
Temperature  
Mean Temperature 58 °F -  
Max Temperature 66 °F 61 °F 78 °F (2007)
Min Temperature 51 °F 42 °F 35 °F (1999)
Degree Days  
Heating Degree Days 6    
Growing Degree Days 8 (Base 50)    
Moisture  
Dew Point 48 °F    
Average Humidity 69    
Maximum Humidity 88    
Minimum Humidity 49    
Precipitation  
Precipitation 0.00 in - - ()
Sea Level Pressure  
Sea Level Pressure 30.09 in    
Wind  
Wind Speed 8 mph (NW)    
Max Wind Speed 13 mph    
Max Gust Speed -    
Visibility 10 miles    
Events      
Averages and records for this station are not official NWS values.
T = Trace of Precipitation, MM = Missing Value Source: NWS Daily Summary

Daily Weather History Graph

Daily Weather History Graph

Search for Another Location

Airport or City:

Trip Planner

Search our weather history database for the weather conditions in past years. The results will help you decide how hot, cold, wet, or windy it might be!

Date:

Astronomy

Jun. 02, 2013 Rise Set
Actual Time 5:11 AM PDT 9:02 PM PDT
Civil Twilight 4:31 AM PDT 9:42 PM PDT
Nautical Twilight 3:36 AM PDT 10:37 PM PDT
Astronomical Twilight 2:14 AM PDT 12:01 AM PDT
Moon 2:06 AM PDT (6/2) 3:15 PM PDT (6/2)
Length of Visible Light 17h 10m
Length of Day
15h 50m
Waning Crescent, 30% of the Moon is Illuminated
Jun 2
Waning Crescent
Jun 8
New
Jun 16
First Quarter
Jun 23
Full
Jun 29
Last Quarter

Hourly Weather History & Observations

Time (PDT) Temp. Dew Point Humidity Pressure Visibility Wind Dir Wind Speed Gust Speed Precip Events Conditions
12:15 AM 55.4 °F 46.4 °F 72% 30.08 in 10.0 mi NW 9.2 mph - N/A   Unknown
12:35 AM 55.4 °F 46.4 °F 72% 30.08 in 10.0 mi NW 6.9 mph - N/A   Unknown
12:55 AM 55.4 °F 46.4 °F 72% 30.08 in 10.0 mi NW 9.2 mph - N/A   Unknown
1:15 AM 55.4 °F 46.4 °F 72% 30.08 in 10.0 mi NW 9.2 mph - N/A   Unknown
1:35 AM 55.4 °F 46.4 °F 72% 30.08 in 10.0 mi NW 8.1 mph - N/A   Unknown
1:55 AM 55.4 °F 46.4 °F 72% 30.08 in 10.0 mi NW 5.8 mph - N/A   Unknown
2:15 AM 55.4 °F 46.4 °F 72% 30.08 in 10.0 mi NW 6.9 mph - N/A   Unknown
2:35 AM 55.4 °F 46.4 °F 72% 30.08 in 10.0 mi NW 5.8 mph - N/A   Unknown
2:55 AM 53.6 °F 46.4 °F 77% 30.08 in 10.0 mi NW 5.8 mph - N/A   Unknown
3:15 AM 53.6 °F 48.2 °F 82% 30.08 in 10.0 mi WNW 8.1 mph - N/A   Unknown
3:35 AM 53.6 °F 48.2 °F 82% 30.08 in 10.0 mi NW 8.1 mph - N/A   Unknown
3:55 AM 53.6 °F 48.2 °F 82% 30.08 in 10.0 mi NW 10.4 mph - N/A   Unknown
4:15 AM 53.6 °F 48.2 °F 82% 30.08 in 10.0 mi NW 10.4 mph - N/A   Unknown
4:35 AM 53.6 °F 48.2 °F 82% 30.07 in 10.0 mi NW 9.2 mph - N/A   Unknown
4:55 AM 53.6 °F 48.2 °F 82% 30.08 in 10.0 mi NW 10.4 mph - N/A   Unknown
5:15 AM 53.6 °F 48.2 °F 82% 30.08 in 10.0 mi NW 11.5 mph - N/A   Unknown
5:35 AM 53.6 °F 48.2 °F 82% 30.08 in 10.0 mi NW 9.2 mph - N/A   Unknown
5:55 AM 53.6 °F 48.2 °F 82% 30.09 in 10.0 mi NNW 11.5 mph - N/A   Unknown
6:15 AM 51.8 °F 48.2 °F 88% 30.09 in 10.0 mi NNW 6.9 mph - N/A   Unknown
6:35 AM 53.6 °F 48.2 °F 82% 30.09 in 10.0 mi NNW 8.1 mph - N/A   Unknown
6:55 AM 53.6 °F 48.2 °F 82% 30.10 in 10.0 mi NNW 6.9 mph - N/A   Unknown
7:15 AM 53.6 °F 48.2 °F 82% 30.10 in 10.0 mi NW 8.1 mph - N/A   Unknown
7:35 AM 53.6 °F 48.2 °F 82% 30.10 in 10.0 mi NW 5.8 mph - N/A   Unknown
7:55 AM 53.6 °F 48.2 °F 82% 30.10 in 10.0 mi NW 6.9 mph - N/A   Unknown
8:15 AM 55.4 °F 48.2 °F 77% 30.10 in 10.0 mi NW 6.9 mph - N/A   Unknown
8:35 AM 55.4 °F 48.2 °F 77% 30.11 in 10.0 mi NW 8.1 mph - N/A   Unknown
8:55 AM 55.4 °F 48.2 °F 77% 30.10 in 10.0 mi NW 10.4 mph - N/A   Unknown
9:15 AM 55.4 °F 48.2 °F 77% 30.11 in 10.0 mi NW 12.7 mph - N/A   Unknown
9:35 AM 55.4 °F 48.2 °F 77% 30.11 in 10.0 mi NNW 8.1 mph - N/A   Unknown
9:55 AM 55.4 °F 48.2 °F 77% 30.11 in 10.0 mi NNW 5.8 mph - N/A   Unknown
10:15 AM 55.4 °F 48.2 °F 77% 30.11 in 10.0 mi NNW 8.1 mph - N/A   Unknown
10:35 AM 55.4 °F 48.2 °F 77% 30.11 in 10.0 mi NNW 8.1 mph - N/A   Unknown
10:55 AM 57.2 °F 48.2 °F 72% 30.12 in 10.0 mi NW 3.5 mph - N/A   Unknown
11:15 AM 57.2 °F 48.2 °F 72% 30.11 in 10.0 mi North 8.1 mph - N/A   Unknown
11:35 AM 59.0 °F 48.2 °F 67% 30.11 in 10.0 mi North 6.9 mph - N/A   Unknown
11:55 AM 60.8 °F 48.2 °F 63% 30.11 in 10.0 mi NW 6.9 mph - N/A   Unknown
12:15 PM 60.8 °F 51.8 °F 72% 30.11 in 10.0 mi NNW 8.1 mph - N/A   Unknown
12:35 PM 60.8 °F 48.2 °F 63% 30.10 in 10.0 mi NNW 9.2 mph - N/A   Unknown
12:55 PM 62.6 °F 48.2 °F 59% 30.10 in 10.0 mi West 8.1 mph - N/A   Unknown
1:15 PM 62.6 °F 48.2 °F 59% 30.10 in 10.0 mi West 5.8 mph - N/A   Unknown
1:35 PM 62.6 °F 50.0 °F 63% 30.10 in 10.0 mi NNW 5.8 mph - N/A   Unknown
1:55 PM 62.6 °F 48.2 °F 59% 30.10 in 10.0 mi WNW 10.4 mph - N/A   Unknown
2:15 PM 64.4 °F 50.0 °F 59% 30.10 in 10.0 mi NW 5.8 mph - N/A   Unknown
2:35 PM 64.4 °F 50.0 °F 59% 30.09 in 10.0 mi West 10.4 mph - N/A   Unknown
2:55 PM 64.4 °F 50.0 °F 59% 30.09 in 10.0 mi WNW 8.1 mph - N/A   Unknown
3:15 PM 64.4 °F 50.0 °F 59% 30.09 in 10.0 mi NW 6.9 mph - N/A   Unknown
3:35 PM 66.2 °F 51.8 °F 60% 30.09 in 10.0 mi WNW 8.1 mph - N/A   Unknown
3:55 PM 66.2 °F 50.0 °F 56% 30.08 in 10.0 mi NNW 8.1 mph - N/A   Unknown
4:15 PM 66.2 °F 50.0 °F 56% 30.08 in 10.0 mi NNW 6.9 mph - N/A   Unknown
4:35 PM 66.2 °F 48.2 °F 52% 30.08 in 10.0 mi WNW 11.5 mph - N/A   Unknown
4:55 PM 66.2 °F 48.2 °F 52% 30.08 in 10.0 mi WNW 9.2 mph - N/A   Unknown
5:15 PM 66.2 °F 48.2 °F 52% 30.08 in 10.0 mi NW 9.2 mph - N/A   Unknown
5:35 PM 66.2 °F 46.4 °F 49% 30.07 in 10.0 mi NW 9.2 mph - N/A   Unknown
5:55 PM 66.2 °F 46.4 °F 49% 30.07 in 10.0 mi NW 8.1 mph - N/A   Unknown
6:15 PM 66.2 °F 48.2 °F 52% 30.07 in 10.0 mi NW 6.9 mph - N/A   Unknown
6:35 PM 66.2 °F 48.2 °F 52% 30.07 in 10.0 mi NW 9.2 mph - N/A   Unknown
6:55 PM 66.2 °F 48.2 °F 52% 30.07 in 10.0 mi WNW 9.2 mph - N/A   Unknown
7:15 PM 66.2 °F 46.4 °F 49% 30.07 in 10.0 mi West 6.9 mph - N/A   Unknown
7:35 PM 64.4 °F 48.2 °F 56% 30.06 in 10.0 mi NW 5.8 mph - N/A   Unknown
7:55 PM 64.4 °F 48.2 °F 56% 30.06 in 10.0 mi NW 5.8 mph - N/A   Unknown
8:15 PM 62.6 °F 48.2 °F 59% 30.06 in 10.0 mi Calm Calm - N/A   Unknown
8:35 PM 62.6 °F 48.2 °F 59% 30.07 in 10.0 mi WNW 3.5 mph - N/A   Unknown
8:55 PM 60.8 °F 48.2 °F 63% 30.07 in 10.0 mi Calm Calm - N/A   Unknown
9:15 PM 59.0 °F 48.2 °F 67% 30.08 in 10.0 mi Calm Calm - N/A   Unknown
9:35 PM 57.2 °F 46.4 °F 67% 30.08 in 10.0 mi Calm Calm - N/A   Unknown
9:55 PM 57.2 °F 46.4 °F 67% 30.09 in 10.0 mi Calm Calm - N/A   Unknown
10:15 PM 53.6 °F 44.6 °F 72% 30.09 in 10.0 mi WNW 4.6 mph - N/A   Unknown
10:35 PM 55.4 °F 44.6 °F 67% 30.10 in 10.0 mi Calm Calm - N/A   Unknown
10:55 PM 55.4 °F 44.6 °F 67% 30.11 in 10.0 mi Calm Calm - N/A   Unknown
11:15 PM 51.8 °F 44.6 °F 76% 30.10 in 10.0 mi Calm Calm - N/A   Unknown
11:35 PM 53.6 °F 44.6 °F 72% 30.10 in 10.0 mi Calm Calm - N/A   Unknown
11:55 PM 51.8 °F 44.6 °F 76% 30.10 in 10.0 mi North 5.8 mph - N/A   Unknown